Springfield, VT

6:48 PM EDT on June 19, 2019 (GMT -0400)
Hartness State

Weather History for KVSF - May, 2019

Change the Weather History Date:

Saturday, May 18, 2019

  Actual Average Record
Temperature  
Mean Temperature 57 °F 56 °F  
Max Temperature 71 °F 68 °F 92 °F (2017)
Min Temperature 43 °F 43 °F 30 °F (2003)
Degree Days  
Heating Degree Days 8 10  
Month to date heating degree days 259 214  
Since 1 July heating degree days 7428 7320  
Cooling Degree Days 0 0  
Month to date cooling degree days 0 0  
Year to date cooling degree days 0 2  
Growing Degree Days 7 (Base 50)    
Moisture  
Dew Point 38 °F    
Average Humidity 49    
Maximum Humidity 82    
Minimum Humidity 23    
Precipitation  
Precipitation 0.00 in 0.12 in 0.68 in (2002)
Month to date precipitation 1.89 1.87  
Year to date precipitation 15.43 14.40  
Sea Level Pressure  
Sea Level Pressure 29.96 in    
Wind  
Wind Speed 6 mph ()    
Max Wind Speed 17 mph    
Max Gust Speed 23 mph    
Visibility 10.0 miles    
Events      
T = Trace of Precipitation, MM = Missing Value Source: Averaged Metar Reports

Daily Weather History Graph

Daily Weather History Graph

Search for Another Location

Airport or City:

Astronomy

May. 18, 2019 Rise Set
Actual Time 5:23 AM EDT 8:10 PM EDT
Civil Twilight 4:49 AM EDT 8:43 PM EDT
Nautical Twilight 4:08 AM EDT 9:25 PM EDT
Astronomical Twilight 3:19 AM EDT 10:14 PM EDT
Moon 8:01 PM EDT (5/18) 5:31 AM EDT (5/18)
Length of Visible Light 15h 53m
Length of Day
14h 47m
Full, 100% of the Moon is Illuminated
May 18
Full
May 18
Full
May 26
Last Quarter
Jun 3
New
Jun 10
First Quarter

Hourly Weather History & Observations

Time (EDT) Temp. Dew Point Humidity Pressure Visibility Wind Dir Wind Speed Gust Speed Precip Events Conditions
12:54 AM 55.9 °F 39.9 °F 55% 29.81 in 10.0 mi WNW 10.4 mph 19.6 mph N/A   Mostly Cloudy
1:54 AM 54.0 °F 39.0 °F 57% 29.84 in 10.0 mi WNW 10.4 mph 23.0 mph N/A   Clear
2:54 AM 51.1 °F 36.0 °F 56% 29.86 in 10.0 mi WNW 5.8 mph - N/A   Clear
3:54 AM 48.0 °F 35.1 °F 61% 29.86 in 10.0 mi West 4.6 mph - N/A   Clear
4:54 AM 46.9 °F 35.1 °F 63% 29.88 in 10.0 mi WNW 3.5 mph - N/A   Clear
5:54 AM 43.0 °F 37.0 °F 80% 29.91 in 10.0 mi Calm Calm - N/A   Clear
6:54 AM 48.9 °F 37.0 °F 64% 29.92 in 10.0 mi SSW 3.5 mph - N/A   Clear
7:54 AM 53.1 °F 36.0 °F 52% 29.94 in 10.0 mi Variable 4.6 mph - N/A   Clear
8:54 AM 57.0 °F 35.1 °F 44% 29.96 in 10.0 mi Variable 4.6 mph - N/A   Clear
9:54 AM 59.0 °F 36.0 °F 42% 29.97 in 10.0 mi NE 8.1 mph - N/A   Clear
10:54 AM 60.1 °F 37.0 °F 42% 29.97 in 10.0 mi Variable 6.9 mph 17.3 mph N/A   Mostly Cloudy
11:54 AM 64.0 °F 39.0 °F 40% 29.97 in 10.0 mi Variable 4.6 mph - N/A   Mostly Cloudy
12:54 PM 64.0 °F 39.0 °F 40% 29.98 in 10.0 mi West 12.7 mph - N/A   Partly Cloudy
1:54 PM 66.9 °F 37.0 °F 33% 29.96 in 10.0 mi Variable 4.6 mph - N/A   Clear
2:54 PM 69.1 °F 36.0 °F 30% 29.95 in 10.0 mi West 12.7 mph 20.7 mph N/A   Clear
3:54 PM 70.0 °F 30.9 °F 24% 29.95 in 10.0 mi West 12.7 mph 19.6 mph N/A   Clear
4:54 PM 70.0 °F 36.0 °F 29% 29.97 in 10.0 mi West 11.5 mph - N/A   Clear
5:54 PM 70.0 °F 35.1 °F 28% 29.97 in 10.0 mi Variable 3.5 mph - N/A   Clear
6:54 PM 69.1 °F 36.0 °F 30% 29.99 in 10.0 mi WNW 3.5 mph - N/A   Clear
7:54 PM 64.0 °F 37.9 °F 38% 30.01 in 10.0 mi North 3.5 mph - N/A   Partly Cloudy
8:54 PM 57.9 °F 42.1 °F 56% 30.04 in 10.0 mi NW 4.6 mph - N/A   Partly Cloudy
9:54 PM 54.0 °F 45.0 °F 72% 30.07 in 10.0 mi Calm Calm - N/A   Overcast
10:54 PM 55.0 °F 45.0 °F 69% 30.07 in 10.0 mi Calm Calm - N/A   Overcast
11:54 PM 54.0 °F 46.0 °F 75% 30.08 in 10.0 mi Calm Calm - N/A   Overcast